STARLINK-4206 (52847 NORAD) Tracking and Keplerian Element Data

This shows tracking and keplerian element data for the satellite.

Feedback or suggestion? Click here.




ElementValue
Catalog52847
NameSTARLINK-4206
Epoch Orbit130
Epoch Day270.00001157
Epoch Year2022
RAAN289.0793
Inclination53.2179
Eccentricity0.0001733
Argument of Perigee40.659
Mean Anonmoly178.8908
Mean Motion15.08810017
Decay Rate0.00037486
L11 52847U 22062T 22270.00001157 .00037486 00000+0 23628-2 0 9995
L22 52847 53.2179 289.0793 0001733 40.6590 178.8908 15.08810017 1307

Live tracking and technical data element details for STARLINK-4206 (NORAD 52847). STARLINK-4206 can be tracked NOW for your location showing map with azimuth and elevation plus other details from your city location.

Track the satellite on the map from your city or location and see movement details for azimuth, elevation, latitude, longitude, range, height, and movement on the map or in text.







IsCatalogInMostPopularTable: catalog: 52847, numindb: 14
Update: records affected: 1



GetName: 52847 STARLINK-4206

Hit Count: updated at: Thu, 06 Oct 2022 04:13:41 GMT